Weather History for Plattsmouth, NE

Change the Weather History Date:

Monday, October 15, 2012

  Actual Average (KOFF) Record (KOFF)
Temperature  
Mean Temperature 60 °F -  
Max Temperature 74 °F 64 °F 78 °F (1998)
Min Temperature 45 °F 42 °F 34 °F (2011)
Degree Days  
Heating Degree Days 6    
Growing Degree Days 10 (Base 50)    
Moisture  
Dew Point 41 °F    
Average Humidity 52    
Maximum Humidity 77    
Minimum Humidity 31    
Precipitation  
Precipitation 0.00 in - - ()
Sea Level Pressure  
Sea Level Pressure 29.92 in    
Wind  
Wind Speed 5 mph (SE)    
Max Wind Speed 12 mph    
Max Gust Speed -    
Visibility 10 miles    
Events      
Averages and records for this station are not official NWS values.
T = Trace of Precipitation, MM = Missing Value Source: NWS Daily Summary

Daily Weather History Graph

Daily Weather History Graph

Search for Another Location

Airport:

Trip Planner

Search our weather history database for the weather conditions in past years. The results will help you decide how hot, cold, wet, or windy it might be!

Date:

Astronomy

Oct. 15, 2012 Rise Set
Actual Time 7:35 AM CDT 6:42 PM CDT
Civil Twilight 7:07 AM CDT 7:10 PM CDT
Nautical Twilight 6:36 AM CDT 7:41 PM CDT
Astronomical Twilight 6:04 AM CDT 8:13 PM CDT
Moon 7:47 AM CDT (10/15) 6:42 PM CDT (10/15)
Length of Visible Light 12h 02m
Length of Day
11h 06m
New Moon, 0% of the Moon is Illuminated
Oct 15
New Moon
Oct 21
First Quarter
Oct 29
Full
Nov 6
Last Quarter
Nov 13
New

Hourly Weather History & Observations

Time (CDT) Temp. Windchill Dew Point Humidity Pressure Visibility Wind Dir Wind Speed Gust Speed Precip Events Conditions
12:15 AM 54.3 °F - 37.4 °F 53% 29.98 in 10.0 mi West 5.8 mph - N/A   Clear
12:35 AM 53.2 °F - 37.4 °F 55% 29.98 in 10.0 mi West 4.6 mph - N/A   Scattered Clouds
12:55 AM 52.5 °F - 37.4 °F 56% 29.98 in 10.0 mi WNW 5.8 mph - N/A   Scattered Clouds
1:15 AM 52.3 °F - 37.4 °F 57% 29.99 in 10.0 mi West 3.5 mph - N/A   Clear
1:35 AM 51.4 °F - 37.6 °F 59% 29.99 in 10.0 mi Calm Calm - N/A   Clear
1:55 AM 50.7 °F - 37.6 °F 61% 29.98 in 10.0 mi Calm Calm - N/A   Clear
2:15 AM 51.3 °F - 37.6 °F 60% 29.98 in 10.0 mi Calm Calm - N/A   Clear
2:35 AM 46.8 °F - 38.3 °F 72% 29.98 in 10.0 mi Calm Calm - N/A   Scattered Clouds
2:55 AM 50.9 °F - 37.6 °F 60% 29.98 in 10.0 mi Calm Calm - N/A   Clear
3:15 AM 50.9 °F - 37.6 °F 60% 29.98 in 10.0 mi Calm Calm - N/A   Clear
3:35 AM 50.9 °F - 38.5 °F 62% 29.97 in 10.0 mi ENE 3.5 mph - N/A   Clear
3:55 AM 50.2 °F - 38.5 °F 64% 29.97 in 10.0 mi Calm Calm - N/A   Clear
4:15 AM 50.5 °F - 38.5 °F 63% 29.97 in 10.0 mi Calm Calm - N/A   Clear
4:55 AM 50.7 °F - 38.5 °F 63% 29.97 in 10.0 mi Calm Calm - N/A   Clear
5:15 AM 49.5 °F - 38.5 °F 66% 29.97 in 10.0 mi SE 3.5 mph - N/A   Clear
5:55 AM 48.2 °F - 38.5 °F 69% 29.98 in 10.0 mi SSE 3.5 mph - N/A   Clear
6:15 AM 47.7 °F - 38.3 °F 70% 29.98 in 10.0 mi SSE 4.6 mph - N/A   Clear
6:35 AM 45.1 °F 42.8 °F 38.5 °F 77% 29.98 in 10.0 mi SSE 4.6 mph - N/A   Clear
6:55 AM 46.4 °F 43.5 °F 38.5 °F 74% 29.97 in 10.0 mi SE 5.8 mph - N/A   Clear
7:15 AM 47.1 °F - 38.3 °F 71% 29.97 in 10.0 mi SE 6.9 mph - N/A   Clear
7:35 AM 47.1 °F - 38.3 °F 71% 29.97 in 10.0 mi SE 5.8 mph - N/A   Clear
7:55 AM 46.0 °F 43.1 °F 38.5 °F 75% 29.97 in 10.0 mi SSE 5.8 mph - N/A   Clear
8:15 AM 46.8 °F - 39.2 °F 75% 29.98 in 10.0 mi SSE 4.6 mph - N/A   Clear
8:35 AM 48.0 °F - 40.5 °F 75% 29.99 in 10.0 mi SE 4.6 mph - N/A   Clear
8:55 AM 49.8 °F - 41.9 °F 74% 29.99 in 10.0 mi Calm Calm - N/A   Clear
9:15 AM 51.6 °F - 42.1 °F 70% 29.99 in 10.0 mi SE 3.5 mph - N/A   Clear
9:35 AM 53.8 °F - 41.7 °F 64% 29.99 in 10.0 mi ESE 5.8 mph - N/A   Clear
9:55 AM 55.8 °F - 41.5 °F 59% 29.99 in 10.0 mi SSE 5.8 mph - N/A   Clear
10:15 AM 57.0 °F - 39.9 °F 53% 29.99 in 10.0 mi SE 6.9 mph - N/A   Clear
10:55 AM 61.2 °F - 40.6 °F 47% 29.98 in 10.0 mi SE 8.1 mph - N/A   Clear
11:15 AM 62.1 °F - 38.8 °F 42% 29.98 in 10.0 mi SE 10.4 mph - N/A   Clear
11:35 AM 63.3 °F - 39.2 °F 41% 29.97 in 10.0 mi SE 11.5 mph - N/A   Clear
11:55 AM 65.1 °F - 40.3 °F 40% 29.97 in 10.0 mi SE 8.1 mph - N/A   Clear
12:15 PM 66.2 °F - 39.7 °F 38% 29.97 in 10.0 mi SE 9.2 mph - N/A   Clear
12:35 PM 67.6 °F - 40.6 °F 37% 29.96 in 10.0 mi SSE 9.2 mph - N/A   Clear
12:55 PM 68.0 °F - 40.1 °F 36% 29.94 in 10.0 mi SE 8.1 mph - N/A   Clear
1:15 PM 69.1 °F - 40.5 °F 35% 29.94 in 10.0 mi SSE 9.2 mph - N/A   Clear
1:35 PM 70.2 °F - 40.1 °F 34% 29.92 in 10.0 mi SE 6.9 mph - N/A   Clear
1:55 PM 71.8 °F - 40.5 °F 32% 29.91 in 10.0 mi SE 6.9 mph - N/A   Clear
2:15 PM 71.4 °F - 40.1 °F 32% 29.91 in 10.0 mi SE 3.5 mph - N/A   Clear
2:35 PM 72.0 °F - 39.9 °F 31% 29.90 in 10.0 mi South 8.1 mph - N/A   Clear
2:55 PM 72.9 °F - 40.6 °F 31% 29.89 in 10.0 mi SSE 6.9 mph - N/A   Clear
3:15 PM 73.6 °F - 41.0 °F 31% 29.88 in 10.0 mi SE 11.5 mph - N/A   Clear
3:35 PM 73.0 °F - 41.2 °F 32% 29.86 in 10.0 mi SSE 9.2 mph - N/A   Clear
3:55 PM 73.9 °F - 41.7 °F 31% 29.86 in 10.0 mi SSE 9.2 mph - N/A   Clear
4:15 PM 74.3 °F - 41.7 °F 31% 29.86 in 10.0 mi SSE 9.2 mph - N/A   Clear
4:35 PM 73.0 °F - 41.2 °F 32% 29.85 in 10.0 mi SSE 8.1 mph - N/A   Clear
4:55 PM 73.6 °F - 42.4 °F 33% 29.85 in 10.0 mi SE 6.9 mph - N/A   Clear
5:15 PM 73.4 °F - 42.1 °F 32% 29.84 in 10.0 mi SSE 6.9 mph - N/A   Clear
5:35 PM 72.5 °F - 43.5 °F 35% 29.83 in 10.0 mi SE 5.8 mph - N/A   Clear
5:55 PM 71.8 °F - 43.5 °F 36% 29.83 in 10.0 mi SE 8.1 mph - N/A   Clear
6:15 PM 70.7 °F - 44.4 °F 39% 29.82 in 10.0 mi SE 8.1 mph - N/A   Clear
6:35 PM 68.5 °F - 45.1 °F 43% 29.82 in 10.0 mi SE 6.9 mph - N/A   Clear
6:55 PM 66.7 °F - 45.5 °F 46% 29.82 in 10.0 mi SE 6.9 mph - N/A   Clear
7:15 PM 64.9 °F - 45.5 °F 49% 29.81 in 10.0 mi SE 6.9 mph - N/A   Clear
7:35 PM 63.7 °F - 45.7 °F 52% 29.82 in 10.0 mi SE 4.6 mph - N/A   Clear
7:55 PM 63.9 °F - 45.1 °F 51% 29.82 in 10.0 mi SE 6.9 mph - N/A   Clear
8:15 PM 62.6 °F - 45.5 °F 54% 29.81 in 10.0 mi SE 8.1 mph - N/A   Clear
8:35 PM 62.2 °F - 45.3 °F 54% 29.81 in 10.0 mi SSE 9.2 mph - N/A   Clear
8:55 PM 63.0 °F - 45.1 °F 52% 29.81 in 10.0 mi SSE 9.2 mph - N/A   Clear
9:15 PM 62.6 °F - 45.1 °F 53% 29.81 in 10.0 mi SE 8.1 mph - N/A   Clear
9:35 PM 62.1 °F - 45.5 °F 55% 29.81 in 10.0 mi SE 9.2 mph - N/A   Clear
9:55 PM 61.0 °F - 45.7 °F 57% 29.81 in 10.0 mi SSE 9.2 mph - N/A   Clear
10:15 PM 60.1 °F - 46.0 °F 60% 29.80 in 10.0 mi SE 10.4 mph - N/A   Clear